Location: Newark
(49.5647°N, 8.2922°E)
Time: 21:23:32
(UTC+00:00)

ISS - Visible Passes

Search period start: 22 January 2020 00:00
Search period end: 01 February 2020 00:00
Orbit: 415 x 421 km, 51.6° (Epoch: 23 January)

Date Brightness Start Highest point End Pass type
(mag) Time Alt. Az. Time Alt. Az. Time Alt. Az.
22 Jan -1.9 17:25:00 10° S 17:27:22 18° SE 17:28:19 16° ESE visible
22 Jan -0.9 19:00:23 10° WSW 19:01:16 17° WSW 19:01:16 17° WSW visible
23 Jan -3.3 18:12:29 10° SW 18:15:23 50° S 18:15:23 50° S visible
24 Jan -2.9 17:24:40 10° SW 17:27:49 37° SSE 17:29:26 22° E visible
24 Jan -1.1 19:01:08 10° W 19:02:22 21° W 19:02:22 21° W visible
25 Jan -3.8 18:13:03 10° WSW 18:16:22 85° NW 18:16:22 85° NW visible
26 Jan -3.7 17:25:01 10° WSW 17:28:22 73° SSE 17:30:20 23° ENE visible
26 Jan -1.2 19:01:56 10° W 19:03:16 22° WNW 19:03:16 22° WNW visible
27 Jan -3.6 18:13:48 10° W 18:17:09 62° N 18:17:11 62° N visible
28 Jan -3.7 17:25:40 10° W 17:29:01 72° NNW 17:31:05 22° ENE visible
28 Jan -1.3 19:02:40 10° WNW 19:04:01 22° WNW 19:04:01 22° WNW visible
29 Jan -3.6 18:14:32 10° WNW 18:17:52 58° N 18:17:54 58° N visible
30 Jan -3.5 17:26:23 10° W 17:29:42 58° N 17:31:48 20° ENE visible
30 Jan -1.4 19:03:16 10° WNW 19:04:43 23° WNW 19:04:43 23° WNW visible
31 Jan -3.9 18:15:10 10° WNW 18:18:32 71° NNE 18:18:38 70° NNE visible
